Powrót do katalogu

OPS 4682 DEB

AktywnyPO
NORAD 38388·DEBRIS·🇺🇸 United States

Wystrzelony Apr 3, 1965 z Vandenberg Space Force Base

Loading…

Następne Przeloty (najbliższe 24 godziny)

TLE

Starzejące sięSource: Space-Track

Epoka: Sep 9, 2026, 08:31 UTC

1 38388U 65027CR  26252.35518587  .00001690  00000-0  55233-2 0  9995
2 38388  90.2751  25.1431 0038111 130.0519 230.3956 13.00637437675005

Śledź OPS 4682 DEB w czasie rzeczywistym z AllMySat

Download on the App Store